Regional Weather Roundup
Issued by NWS Wakefield, VA

Home | Current Version | Previous Version | Graphics & Text | Print | Product List | Glossary On
Versions: 1 2 3 4 5 6 7 8 9 10 11 12 13 14 15 16 17 18 19 20 21 22 23 24 25 26 27 28 29 30 31 32 33 34 35 36 37 38 39 40 41 42 43 44 45 46 47 48 49 50
000
ASUS41 KAKQ 260614
RWRAKQ

REGIONAL WEATHER ROUNDUP
NATIONAL WEATHER SERVICE WAKEFIELD VA
200 AM EDT TUE MAY 26 2015

Note: "fair" indicates few or no clouds below 12,000 feet with no
significant weather and/or obstructions to visibility. * = Denotes
station may not report precipitation (e.g., rain,snow,etc.),
thunder or fog.

VAZ042-051-052>054-056-260700-
NORTHERN VIRGINIA

CITY           SKY/WX    TMP DP  RH WIND       PRES   REMARKS
WASH NATIONAL  MOCLDY    71  60  68 S10       30.21R
DULLES         CLEAR     66  56  70 S5        30.19S
FORT BELVOIR   CLEAR     68  59  73 SE6       30.20S
QUANTICO       CLEAR     70  59  68 SW9       30.21S
FREDERICKSBRG* CLEAR     67  58  73 S6        30.20S
STAFFORD*      CLEAR     63  56  78 S3        30.24F
WARRENTON      CLEAR     66  58  77 S3        30.20S
CULPEPER*      CLEAR     57  55  94 CALM      30.20F
MANASSAS*      CLEAR     64  57  77 S3        30.20S
LEESBURG*      CLEAR     68  59  73 S8        30.20S
WINCHESTER     CLEAR     70  50  49 SW6       30.18F
FRONT ROYAL*   FAIR      68  55  64 S6        30.18S
LURAY*         FAIR      68  57  68 SW5       30.20F
$$

VAZ048-049-060>072-079>083-260700-
CENTRAL AND SOUTH CENTRAL VIRGINIA

CITY           SKY/WX    TMP DP  RH WIND       PRES   REMARKS
RICHMOND       CLEAR     68  59  73 S10       30.23F
CHESTERFIELD*  NOT AVBL
PETERSBURG*    CLEAR     65  59  80 S3        30.25S
HANOVER        CLEAR     69  58  67 S9        30.24S
TAPPAHANNOCK*  CLEAR     68  56  65 S5        30.24S
QUINTON*       FAIR      68  60  76 S5        30.24S
CHARLOTTSVILLE CLEAR     66  56  70 SW5       30.20F
GORDONSVILLE*  FAIR      58  56  94 CALM      30.20F
ORANGE*        CLEAR     63  57  82 CALM      30.22F
LOUISA*        CLEAR     64  57  77 CALM      30.20F
BUMPASS*       FAIR      64  57  77 S3        30.21S
FARMVILLE*     CLEAR     62  56  81 CALM      30.22S
CREWE*         FAIR      65  58  76 S5        30.24S
FORT PICKETT*  NOT AVBL
CHASE CITY*    FAIR      69  63  81 S3        30.25S
CLARKSVILLE*   FAIR      64  61  88 S7        30.24F
SOUTH HILL*    CLEAR     65  59  81 CALM      30.31S
LAWRENCEVILLE* FAIR      64  61  88 CALM      30.26R
EMPORIA*       CLEAR     63  59  88 CALM      30.28R
$$

VAZ088>098-260700-
SOUTHEAST VIRGINIA

CITY           SKY/WX    TMP DP  RH WIND       PRES   REMARKS
NORFOLK        CLEAR     68  59  73 S12       30.26F
VIRGINIA BEACH CLEAR     69  61  75 SW9       30.27S
NORFOLK NAVAL  CLEAR     73  60  63 S9        30.27F
WEST POINT*    CLEAR     71  59  65 S9        30.26S
SALUDA*        FAIR      68  60  74 S9G18     30.24S
NEWPORT NEWS   CLEAR     72  61  68 S10       30.26F
LANGLEY AFB    CLEAR     69  61  76 SW9       30.25F
FORT EUSTIS    CLEAR     69  61  77 S9        30.24F
WILLIAMSBURG*  CLEAR     72  63  73 S10G20    30.26S
HR EXEC AP*    FAIR      66  59  77 S7        30.29S
FRANKLIN*      CLEAR     64  60  86 S7        30.27S
WAKEFIELD      CLEAR     68  60  75 S6        30.26S
$$

VAZ020-022-025-037-045-260700-
WEST CENTRAL AND SOUTHWEST VIRGINIA

CITY           SKY/WX    TMP DP  RH WIND       PRES   REMARKS
STAUNTON*      CLEAR     59  55  86 CALM      30.24F
WAYNESBORO*    FAIR      61  55  79 CALM      30.24S
HOT SPRINGS VA PTCLDY    62  52  69 SW9G18    30.32S
LYNCHBURG      PTCLDY    59  56  89 CALM      30.25F
DANVILLE       CLEAR     66  59  78 S3        30.25S
SOUTH BOSTON*  FAIR      65  58  78 CALM      30.24F
MARTINSVILLE   PTCLDY    56  56 100 CALM      30.28R
ROANOKE        PTCLDY    64  56  75 NW3       30.26S
BLACKSBURG     PTCLDY    62  55  75 CALM      30.31S
DUBLIN*        MOCLDY    60  59  96 CALM      30.29S
MARION*        CLOUDY    69  58  68 N5        30.30S
HILLSVILLE*    CLOUDY    64  58  81 SW7       30.31S
RICHLANDS*     FAIR      66  57  72 CALM      30.26F
WISE*          CLOUDY    68  55  64 SW8       30.27S
ABINGDON*      MOCLDY    65  59  80 N3        30.24F
$$

MDZ021>025-VAZ099-100-260700-
SOUTHERN MARYLAND AND THE DELMARVA PENINSULA

CITY           SKY/WX    TMP DP  RH WIND       PRES   REMARKS
PATUXENT RIVER CLEAR     68  59  73 S9        30.22S
BAY BRIDGE APT   N/A    N/A N/A N/A S9        30.21S
LEONARDTOWN    CLEAR     66  57  72 S5        30.24S
DOVER          CLEAR     65  61  86 S8        30.19S
GEORGETOWN     CLEAR     64  58  80 S8        30.24F
EASTON         CLEAR     70  63  77 SW12      30.25F
CAMBRIDGE      CLEAR     72  61  68 S6        30.22F
SALISBURY      CLEAR     61  58  90 CALM      30.24F
OCEAN CITY     CLEAR     67  61  81 SW13      30.25F
WALLOPS ISLAND CLEAR     64  63  96 S12       30.26F
ACCOMACK*      CLEAR     68  63  83 S8        30.26S
$$

NCZ012>017-030>032-260700-
NORTH CENTRAL AND EASTERN NORTH CAROLINA

CITY           SKY/WX    TMP DP  RH WIND       PRES   REMARKS
ROANOKE RAPIDS FAIR      63  59  88 S3        30.27S
RALEIGH        PTCLDY    68  61  78 SW8       30.27F
ELIZABETH CITY CLEAR     67  62  84 S7        30.28F
AHOSKIE*       CLEAR     62  59  90 CALM      30.28S
EDENTON*       CLEAR     69  62  80 S9        30.28F
CURRITUCK*     CLEAR     67  61  80 CALM      30.28F
KILL DEVIL HLS CLEAR     71  62  75 S3        30.28F
MANTEO         PTCLDY    71  63  76 SW10      30.29F
CAPE HATTERAS  PTCLDY    72  61  68 S12       30.30F
TARBORO*       FAIR      66  61  85 CALM      30.29R
GOLDSBORO      CLEAR     65  62  90 CALM      30.26S
WASHINGTON     CLEAR     67  62  82 S5        30.28F
GREENVILLE     CLEAR     66  63  88 CALM      30.29R
NEW BERN       CLEAR     63  59  87 S5        30.29F
WILMINGTON     CLEAR     69  63  81 S3        30.28F
$$

VAZ048-260700-
ELSEWHERE

CITY           SKY/WX    TMP DP  RH WIND       PRES   REMARKS
HARRISBURG PA  PTCLDY    69  61  75 S8        30.17S
BALTIMORE      CLEAR     66  59  78 CALM      30.20S
ANNAPOLIS      CLEAR     68  60  75 S7        30.20S
ANDREWS AFB    CLEAR     67  59  75 S7        30.20S
PHILADELPHIA   CLEAR     69  53  56 SW8       30.21F
HENDERSON NC   CLEAR     65  58  78 S7        30.27S
GREENSBORO     PTCLDY    69  62  78 S9        30.26S
ROCKY MOUNT    CLEAR     66  61  84 S5        30.28S
$$

VAZ100-260700-
MARINE

STATION/POSITION TIME  TEMP    WIND        PRES    WAVE   SWELL
                       AIR SEA DIR/SP/G            HT/PER HT/PER
                 (UTC) (F)     (DEG/KT/KT) (MB)    (FT/S) (FT/S)
BRANDYWINE LGT   0500   67 65  200/ 16/ 18 1023.8F
CAPE MAY NJ      0500   64 68  160/  7/ 10 1023.8F
LEWES DE         0500   68 64  200/  6/  9 1023.9F
15NM E FENWICK I 0550   63 60              1024.1F   3/ 4
OCEAN-CITY-INLET 0500   63 62  210/ 11/ 14 1024.7F
WACHAPREAGUE VA  0500   69 71  210/  7/ 11 1024.9F
THOMAS POINT MD  0600   68 67  180/ 15/ 16 1023.3F
GOOSES REEF MD   0600   69 67  200/ 14/ 16 1024.0F   2/ 3
SOLOMONS ISLAND  0500      70                N/A
BISHOPS HEAD MD  0500   71 69  180/ 16/ 20 1023.3F
PINEY POINT MD   0500          200/ 11/ 13   N/A
CAMBRIDGE MD     0500   70 71  180/  4/  8 1023.4F
LEWISETTA VA     0500   70 71              1023.4F
RAPPAHANNOCK LGT 0500          180/ 17/ 19 1025.0F
STINGRAY PT      0600   71 70  210/ 14/ 16 1023.6F   1/ 2
YORK RVR RNG VA  0500   71     210/ 18/ 20 1023.8F
YORKTOWN VA      0500   71 71  190/ 10/ 14 1024.3F
JAMESTOWN VA     0600   68 74  200/ 10/ 16 1023.5F
DOMINION TERM VA 0500   70     200/ 12/ 14 1025.0F
KIPTOPEKE VA     0500      74  200/ 14/ 17   N/A
CHES BAY BRIDGE  0500   70 70  170/ 13/ 16 1024.4F
CAPE HENRY VA    0500   69     190/ 11/ 16 1023.7F
CHESAPEAKE LGHT  0500   67     190/ 18/ 18 1025.7F
WILLOUBY STN VA  0500   70     200/ 18/ 23 1025.3F
CAPE HENRY BUOY  0528      65                N/A     2/ 3
1ST LANDING BUOY 0600      69              1024.3F
CAPE CHARLES BUO 0526      68                N/A     2/ 3   2/13
OFFSHORE WE BUOY 0511      66                N/A     2/ 3   2/ 8
64NM E OF VA BCH 0550   66 63  180/  8/ 10 1025.3F   1/ 8   2/ 8
DUCK PIER NC     0500   72 61  180/ 10/ 12 1025.0F
44100 DUCK FRF   0524      65                N/A     1/ 8
44056 DUCK FRF   0511      64                N/A     1/ 7
OREGON INLET NC  0500   73 76  180/ 11/ 15 1026.1F
HATTERAS NC      0500   74 75  170/  8/ 13 1025.9F
DIAMOND SHLS NC  0550   74 76  160/ 16/ 17 1025.8F   3/ 4   2/ 7
CAPE LOOKOUT NC  0600   73     150/ 12/ 14 1025.4F
$$


USA.gov is the U.S. government's official web portal to all federal, state and local government web resources and services.